Tracking 25734 objects as of 26-May-2022
HD Live streaming from Space Station
objects crossing your sky now

COSMOS 1455

Track COSMOS 1455 now!
10-day predictions
COSMOS 1455 is classified as:


NORAD ID: 14032
Int'l Code: 1983-037A
Perigee: 498.9 km
Apogee: 523.8 km
Inclination: 82.5 °
Period: 94.7 minutes
Semi major axis: 6882 km
RCS: 6.2678 m2 (large)
Launch date: April 23, 1983
Source: Commonwealth of Independent States (former USSR) (CIS)
Launch site: PLESETSK MISSILE AND SPACE COMPLEX (PKMTR)
aabbcc
Your satellite tracking list
Your tracking list is empty




NASA's NSSDC Master Catalog

Two Line Element Set (TLE):
1 14032U 83037A   22145.87939346  .00006606  00000-0  29927-3 0  9994
2 14032  82.5135 102.9589 0018057 119.9830 240.3201 15.20537986134806
Source of the keplerian elements: AFSPC